This is the latest recevied weather packets stored in our database for station/object KE8AFF-13. If no packets are shown the sender has not sent any weather packets the latest 10 day(s).
| Time | Temp. | Humidity | Pressure | Rain* | Wind** | Luminosity | Snow |
|---|---|---|---|---|---|---|---|
| 1778103739 | 12.22° C | 56% | 1012.5 hPa | 0 mm | - | 140 W/m² | - |
| 1778103437 | 12.22° C | 57% | 1012.6 hPa | 0 mm | - | 143 W/m² | - |
| 1778103134 | 12.22° C | 55% | 1012.7 hPa | 0 mm | - | 143 W/m² | - |
| 1778102832 | 12.22° C | 55% | 1012.5 hPa | 0 mm | - | 136 W/m² | - |
| 1778102526 | 12.22° C | 56% | 1012.5 hPa | 0 mm | - | 112 W/m² | - |
| 1778102222 | 12.22° C | 56% | 1012.5 hPa | 0 mm | - | 117 W/m² | - |
| 1778101919 | 12.22° C | 57% | 1012.4 hPa | 0 mm | - | 129 W/m² | - |
| 1778101615 | 12.22° C | 57% | 1012.3 hPa | 0 mm | - | 107 W/m² | - |
| 1778101312 | 12.22° C | 57% | 1012.4 hPa | 0 mm | - | 110 W/m² | - |
| 1778101010 | 11.67° C | 57% | 1012.1 hPa | 0 mm | - | 118 W/m² | - |
| 1778100704 | 12.22° C | 55% | 1012.2 hPa | 0 mm | - | 147 W/m² | - |
| 1778100403 | 12.22° C | 56% | 1012.3 hPa | 0 mm | - | 135 W/m² | - |
| 1778100099 | 11.67° C | 55% | 1012.1 hPa | 0 mm | - | 155 W/m² | - |
| 1778099798 | 11.67° C | 56% | 1012.2 hPa | 0 mm | - | 146 W/m² | - |
| 1778099494 | 12.22° C | 55% | 1012.3 hPa | 0 mm | - | 140 W/m² | - |
| 1778099192 | 12.22° C | 53% | 1012.3 hPa | 0 mm | - | 160 W/m² | - |
| 1778098888 | 12.22° C | 55% | 1012.2 hPa | 0 mm | - | 188 W/m² | - |
| 1778098585 | 12.22° C | 55% | 1012.1 hPa | 0 mm | - | 214 W/m² | - |
| 1778098282 | 12.22° C | 55% | 1012.6 hPa | 0 mm | - | 223 W/m² | - |
| 1778097978 | 12.22° C | 54% | 1012.4 hPa | 0 mm | - | 196 W/m² | - |
| 1778097675 | 12.78° C | 56% | 1012.6 hPa | 0 mm | - | 176 W/m² | - |
| 1778097372 | 12.22° C | 54% | 1012.4 hPa | 0 mm | - | 170 W/m² | - |
| 1778097068 | 12.22° C | 56% | 1012.3 hPa | 0 mm | - | 151 W/m² | - |
| 1778096765 | 12.22° C | 55% | 1012.3 hPa | 0 mm | - | 193 W/m² | - |
| 1778096462 | 12.22° C | 56% | 1012.4 hPa | 0 mm | - | 214 W/m² | - |
* Rain latest hour (hover to see other rain measurements)
** Current wind speed in m/s (hover to see current wind gust speed)